Flag for Switzerland Weather past 2 weeks in Oftringen, Aargau, Switzerland

Now
64 °F

Mild.


Feels Like: 64 °F
Forecast: 66 / 92 °F
Wind: 2 mph from Southwest

Location: Wynau

Current Time: Jul 2, 2015 at 3:28:18 AM

Latest Report: Jul 2, 2015 at 2:00 AM


Visibility: N/A

Pressure: 30.11 "Hg

Humidity: 95%

Dew point: 63 °F

Location of OftringenLocation

Historic Weather in Oftringen — Graph

°F

Oftringen temperature yesterday

Maximum temperature yesterday: 91 °F (at 6:00 PM)
Minimum temperature yesterday: 56 °F (at 5:00 AM)
Average temperature yesterday: 73 °F

Past Weeks' High & Low Weather Summary

 TemperatureHumidityPressure
High91 °F (Jul 1, 6:00 PM)100% (Jun 19, 5:00 AM)30.24 "Hg (Jun 19, 5:00 AM)
Low45 °F (Jun 24, 6:00 AM)28% (Jun 30, 6:00 PM)29.74 "Hg (Jun 22, 9:00 PM)
Average64 °F69%30.09 "Hg
* Reported Jun 17 2:00 AM — Jul 2 2:00 AM, Oftringen, Weather by CustomWeather, © 2015

Note: Actual official high and low records may vary slightly from our data, if they occured in-between our weather recording intervals... More about our weather records

Advertising

Oftringen weather history for previous 24 hours

 ConditionsComfort  
Time TempWeatherWind HumidityBarometerVisibility
2:00 AM
Thu, Jul 2
64 °FMild.2 mph95%30.11 "HgN/A
1:00 AM67 °FMild.No wind91%30.09 "HgN/A
12:00 AM69 °FMild.No wind85%30.08 "HgN/A
11:00 PM
Wed, Jul 1
70 °FMild.No wind85%30.06 "HgN/A
10:00 PM74 °FMild.No wind67%30.04 "HgN/A
9:00 PM77 °FWarm.No wind67%30.01 "HgN/A
8:00 PM83 °FWarm.1 mph51%29.98 "HgN/A
7:00 PM90 °FHot.1 mph37%29.96 "HgN/A
6:00 PM91 °FHot.1 mph33%29.95 "HgN/A
5:00 PM90 °FHot.2 mph33%29.96 "HgN/A
4:00 PM90 °FHot.2 mph33%29.97 "HgN/A
3:00 PM90 °FHot.2 mph32%29.98 "HgN/A
2:00 PM87 °FPleasantly warm.2 mph37%30.00 "HgN/A
1:00 PM85 °FWarm.2 mph43%30.02 "HgN/A
12:00 PM81 °FWarm.2 mph49%30.04 "HgN/A
11:00 AM77 °FWarm.2 mph50%30.06 "HgN/A
10:00 AM75 °FMild.2 mph56%30.07 "HgN/A
9:00 AM68 °FMild.No wind70%30.10 "HgN/A
8:00 AM64 °FMild.No wind78%30.11 "HgN/A
7:00 AM59 °FCool.No wind89%30.12 "HgN/A
6:00 AM57 °FCool.No wind94%30.12 "HgN/A
5:00 AM56 °FCool.No wind95%30.11 "HgN/A
4:00 AM57 °FCool.No wind91%30.10 "HgN/A
3:00 AM59 °FCool.No wind92%30.09 "HgN/A
Weather by CustomWeather, © 2015

See weather overviewHow to use our weather pages